Weather History for Piney Island, NC

Change the Weather History Date:

Tuesday, November 19, 2013

  Actual Average (KMRH) Record (KMRH)
Temperature  
Mean Temperature 55 °F -  
Max Temperature 60 °F 66 °F 80 °F (1985)
Min Temperature 48 °F 44 °F 28 °F (1951)
Degree Days  
Heating Degree Days 10    
Growing Degree Days 5 (Base 50)    
Moisture  
Dew Point 36 °F    
Average Humidity 52    
Maximum Humidity 66    
Minimum Humidity 40    
Precipitation  
Precipitation 0.00 in - - ()
Sea Level Pressure  
Sea Level Pressure 30.11 in    
Wind  
Wind Speed 15 mph (North)    
Max Wind Speed 20 mph    
Max Gust Speed 28 mph    
Averages and records for this station are not official NWS values.
T = Trace of Precipitation, MM = Missing Value Source: NWS Daily Summary

Daily Weather History Graph

Daily Weather History Graph

Search for Another Location

Airport:

Trip Planner

Search our weather history database for the weather conditions in past years. The results will help you decide how hot, cold, wet, or windy it might be!

Date:

Astronomy

Nov. 19, 2013 Rise Set
Actual Time 6:44 AM EST 4:57 PM EST
Civil Twilight 6:17 AM EST 5:25 PM EST
Nautical Twilight 5:46 AM EST 5:55 PM EST
Astronomical Twilight 5:16 AM EST 6:25 PM EST
Moon 6:47 PM EST (11/19) 8:21 AM EST (11/19)
Length of Visible Light 11h 07m
Length of Day
10h 13m
Waning Gibbous, 96% of the Moon is Illuminated
Nov 19
Waning Gibbous
Nov 25
Last Quarter
Dec 2
New
Dec 9
First Quarter
Dec 17
Full

Hourly Weather History & Observations

Time (EST) Temp. Dew Point Humidity Pressure Visibility Wind Dir Wind Speed Gust Speed Precip Events Conditions
12:56 AM 60.1 °F 41.0 °F 49% 29.91 in - NNW 13.8 mph 20.7 mph N/A   Clear
1:56 AM 59.0 °F 39.0 °F 48% 29.93 in - NNW 13.8 mph - N/A   Clear
2:56 AM 57.0 °F 39.0 °F 51% 29.94 in - North 13.8 mph - N/A   Clear
3:56 AM 55.9 °F 37.9 °F 51% 29.96 in - NNW 13.8 mph - N/A   Clear
4:56 AM 55.0 °F 37.0 °F 51% 29.98 in - North 15.0 mph - N/A   Clear
5:56 AM 54.0 °F 37.0 °F 53% 30.01 in - North 12.7 mph - N/A   Clear
6:56 AM 53.1 °F 37.0 °F 55% 30.04 in - North 12.7 mph - N/A   Clear
7:56 AM 54.0 °F 35.1 °F 49% 30.08 in - North 17.3 mph 26.5 mph N/A   Clear
8:56 AM 55.0 °F 35.1 °F 47% 30.09 in - North 18.4 mph 24.2 mph N/A   Clear
9:56 AM 55.0 °F 34.0 °F 45% 30.11 in - North 18.4 mph 27.6 mph N/A   Clear
10:56 AM 55.9 °F 34.0 °F 44% 30.12 in - North 17.3 mph 25.3 mph N/A   Clear
11:56 AM 55.9 °F 33.1 °F 42% 30.11 in - North 18.4 mph 24.2 mph N/A   Clear
12:56 PM 57.0 °F 33.1 °F 40% 30.12 in - North 17.3 mph - N/A   Clear
1:56 PM 57.0 °F 35.1 °F 44% 30.11 in - North 13.8 mph 19.6 mph N/A   Clear
2:56 PM 55.0 °F 37.0 °F 51% 30.12 in - NE 15.0 mph 24.2 mph N/A   Clear
3:56 PM 54.0 °F 37.0 °F 53% 30.14 in - NNE 16.1 mph - N/A   Clear
4:56 PM 52.0 °F 37.0 °F 57% 30.16 in - NE 13.8 mph 21.9 mph N/A   Clear
5:56 PM 51.1 °F 36.0 °F 56% 30.19 in - NE 15.0 mph 23.0 mph N/A   Clear
6:56 PM 50.0 °F 37.0 °F 61% 30.22 in - NE 13.8 mph 24.2 mph N/A   Clear
7:56 PM 50.0 °F 35.1 °F 57% 30.24 in - NE 18.4 mph 27.6 mph N/A   Clear
8:56 PM 50.0 °F 36.0 °F 59% 30.25 in - NNE 18.4 mph 25.3 mph N/A   Clear
9:56 PM 50.0 °F 36.0 °F 59% 30.25 in - NNE 19.6 mph 26.5 mph N/A   Scattered Clouds
10:56 PM 50.0 °F 37.0 °F 61% 30.26 in - North 15.0 mph 24.2 mph N/A   Clear
11:56 PM 48.9 °F 37.9 °F 66% 30.27 in - North 16.1 mph 23.0 mph N/A   Clear